Home   Weather   Weilheim in Oberbayern   Past weeks

Flag for Germany Past Weather in Weilheim in Oberbayern, Bavaria, Germany — Yesterday and Last 2 Weeks

Now
45 °F

Quite cool.


Feels Like: 42 °F
Forecast: 50 / 75 °F
Wind: 5 mph from Southwest

Location: Altenstadt Airport

Current Time: Sep 28, 2016 at 5:37:02 AM

Latest Report: Sep 28, 2016 at 4:20 AM


Visibility: N/A

Pressure: 30.39 "Hg (28.38 "Hg at 560m altitude)

Humidity: 100%

Dew Point: 45 °F

Location of Weilheim in OberbayernLocation

Past Weather in Weilheim in Oberbayern — Graph

°F

Weilheim in Oberbayern Temperature Yesterday

Maximum temperature yesterday: 63 °F (at 4:20 PM)
Minimum temperature yesterday: 43 °F (at 3:20 AM)
Average temperature yesterday: 53 °F

High & Low Weather Summary for the Past Weeks

 TemperatureHumidityPressure
High79 °F (Sep 13, 4:20 PM)100% (Sep 14, 4:48 AM)30.39 "Hg (Sep 14, 4:48 AM)
Low41 °F (Sep 22, 7:20 AM)34% (Sep 15, 12:20 PM)29.89 "Hg (Sep 15, 3:20 AM)
Average55 °F84%30.10 "Hg
* Reported Sep 13 3:20 AM — Sep 28 3:20 AM, Weilheim in Oberbayern, Weather by CustomWeather, © 2016

Note: Actual official high and low records may vary slightly from our data, if they occured in-between our weather recording intervals... More about our weather records

Advertising

Weilheim in Oberbayern Weather History for the Previous 24 Hours

Scroll right to see more
 ConditionsComfort  
Time TempWeatherWind HumidityBarometerVisibility
3:20 AM
Wed, Sep 28
46 °FCool.6 mph100%30.39 "HgN/A
2:20 AM46 °FCool.3 mph93%30.39 "HgN/A
1:20 AM46 °FCool.3 mph100%30.39 "HgN/A
12:20 AM48 °FCool.3 mph100%30.39 "HgN/A
11:20 PM
Tue, Sep 27
48 °FCool.2 mph100%30.39 "HgN/A
10:20 PM50 °FCool.2 mph94%30.39 "HgN/A
9:20 PM52 °FCool.1 mph94%30.39 "HgN/A
8:20 PM54 °FFog.1 mph94%30.39 "Hg5 mi
8:00 PM54 °FFog.2 mph94%30.39 "Hg6 mi
7:20 PM57 °FPassing clouds.2 mph82%30.36 "HgN/A
6:20 PM59 °FPassing clouds.6 mph77%30.36 "HgN/A
5:20 PM61 °FPassing clouds.6 mph72%30.33 "HgN/A
4:20 PM63 °FPassing clouds.7 mph68%30.33 "HgN/A
3:20 PM61 °FScattered clouds.7 mph72%30.33 "HgN/A
2:20 PM61 °FScattered clouds.8 mph72%30.33 "HgN/A
1:50 PM61 °FScattered clouds.9 mph77%30.33 "HgN/A
12:20 PM59 °FPartly sunny.7 mph77%30.33 "HgN/A
11:50 AM61 °FPartly sunny.7 mph63%30.33 "HgN/A
11:20 AM59 °FPassing clouds.6 mph72%30.30 "HgN/A
10:20 AM55 °FBroken clouds.6 mph82%30.30 "HgN/A
9:20 AM55 °FPartly sunny.9 mph88%30.27 "HgN/A
8:20 AM54 °FPartly sunny.9 mph94%30.27 "Hg4 mi
7:49 AM50 °FFog.7 mph94%30.27 "Hg2 mi
7:20 AM48 °FScattered clouds.5 mph100%30.24 "Hg1 mi
6:47 AM48 °FFog.5 mph94%30.24 "Hg1 mi
6:20 AM46 °FPassing clouds.2 mph93%30.24 "Hg4 mi
5:20 AM46 °FPassing clouds.2 mph100%30.21 "Hg4 mi
Weather by CustomWeather, © 2016

See weather overviewHow to use our weather pages